This demonstration page uses our WeatherBlox Daily Observations layout. Learn more.

Left ArrowRight Arrow

34.16533, -84.80231

Hourly Observations for September 20, 2017

Temp ( °F °C ) Dew Point ( °F °C ) Humidity (%) Winds ( mph kmh ) Pressure ( in mb ) Visibility ( mi km ) Precip ( " mm )
12:53 am 00:53 Clear with Mist and Fog 67 19.4 67 19.4 100 100 Calm 29.98 1015 6 10 0.00 0.00
1:53 am 01:53 Clear with Mist and Fog 68 20 68 20 100 100 SW 3 6 29.99 1016 5 8 0.00 0.00
2:53 am 02:53 Clear with Mist and Fog 67 19.4 67 19.4 100 100 Calm 29.97 1015 4 6 0.00 0.00
3:53 am 03:53 Clear with Mist and Fog 65 18.3 65 18.3 100 100 Calm 29.97 1015 4 6 0.00 0.00
3:57 am 03:57 Mostly Clear with Mist and Fog 65 18.3 65 18.3 100 100 Calm 30.00 1016 2 3 0.00 0.00
4:09 am 04:09 Partly Cloudy with Mist and Fog 64 17.8 64 17.8 100 100 Calm 30.00 1016 4 6 0.00 0.00
4:17 am 04:17 Mostly Cloudy with Mist and Fog 65 18.3 65 18.3 100 100 Calm 30.00 1016 3 4 0.00 0.00
4:21 am 04:21 Mostly Cloudy with Mist and Fog 65 18.3 65 18.3 100 100 Calm 30.00 1016 1 1 0.00 0.00
4:53 am 04:53 Mostly Cloudy with Fog 65 18.3 65 18.3 100 100 Calm 29.97 1015 1 1 0.00 0.00
5:10 am 05:10 Mostly Cloudy with Fog 65 18.3 65 18.3 100 100 Calm 30.00 1016 0 0 0.00 0.00
5:53 am 05:53 Mostly Cloudy with Fog 66 18.9 66 18.9 100 100 Calm 29.98 1015 0 0 0.00 0.00
6:14 am 06:14 Mostly Cloudy with Fog 66 18.9 66 18.9 100 100 Calm 30.03 1017 1 1 0.00 0.00
6:53 am 06:53 Mostly Cloudy with Mist and Fog 66 18.9 66 18.9 100 100 Calm 30.01 1016 1 1 0.00 0.00
7:24 am 07:24 Mostly Cloudy with Fog 65 18.3 65 18.3 100 100 Calm 30.03 1017 0 0 0.00 0.00
7:53 am 07:53 Mostly Cloudy with Fog 65 18.3 65 18.3 100 100 Calm 30.02 1017 0 0 0.00 0.00
8:53 am 08:53 Mostly Cloudy with Fog 66 18.9 66 18.9 100 100 Calm 30.04 1017 0 0 0.00 0.00
9:03 am 09:03 Mostly Cloudy with Fog 66 18.9 66 18.9 100 100 Calm 30.03 1017 1 1 0.00 0.00
9:19 am 09:19 Mostly Cloudy with Mist and Fog 66 18.9 66 18.9 100 100 Calm 30.06 1018 1 2 0.00 0.00
9:39 am 09:39 Cloudy with Mist and Fog 67 19.4 67 19.4 100 100 Calm 30.06 1018 2 3 0.00 0.00
9:46 am 09:46 Cloudy with Mist and Fog 67 19.4 67 19.4 100 100 Calm 30.06 1018 1 1 0.00 0.00
9:53 am 09:53 Cloudy with Mist and Fog 67 19.4 67 19.4 100 100 Calm 30.06 1018 1 1 0.00 0.00
10:00 am 10:00 Cloudy with Mist and Fog 68 20 68 20 100 100 Calm 30.06 1018 1 2 0.00 0.00
10:10 am 10:10 Cloudy with Mist and Fog 68 20 68 20 100 100 N 3 6 30.06 1018 3 5 0.00 0.00
10:53 am 10:53 Partly Cloudy 74 23.3 70 21.1 88 88 VRB 3 6 30.07 1018 10 16 0.00 0.00
11:53 am 11:53 Sunny 81 27.2 69 20.6 67 67 N 6 9 30.05 1018 10 16 0.00 0.00
12:53 pm 12:53 Sunny 84 28.9 66 18.9 55 55 VRB 3 6 30.04 1017 10 16 0.00 0.00
1:53 pm 13:53 Sunny 85 29.4 66 18.9 53 53 N 3 6 30.02 1017 10 16 0.00 0.00
2:53 pm 14:53 Sunny 88 31.1 69 20.6 54 54 NE 6 9 30.00 1016 10 16 0.00 0.00
3:53 pm 15:53 Sunny 87 30.6 68 20 53 53 Calm 29.98 1015 10 16 0.00 0.00
4:53 pm 16:53 Sunny 87 30.6 68 20 53 53 Calm 29.97 1015 10 16 0.00 0.00
5:53 pm 17:53 Sunny 86 30 67 19.4 53 53 VRB 3 6 29.96 1015 10 16 0.00 0.00
6:53 pm 18:53 Sunny 80 26.7 70 21.1 71 71 Calm 29.97 1015 10 16 0.00 0.00
7:53 pm 19:53 Clear 73 22.8 71 21.7 94 94 Calm 29.98 1015 10 16 0.00 0.00
8:53 pm 20:53 Clear 71 21.7 70 21.1 96 96 Calm 30.00 1016 10 16 0.00 0.00
9:53 pm 21:53 Clear 69 20.6 69 20.6 100 100 Calm 30.01 1016 10 16 0.00 0.00
10:53 pm 22:53 Clear 68 20 68 20 100 100 Calm 30.02 1017 10 16 0.00 0.00
11:53 pm 23:53 Clear 68 20 68 20 100 100 Calm 30.02 1017 10 16 0.00 0.00

Powered by AerisWeather